Skip Navigation Links
NOAA logo - Click to go to the NOAA homepage
NOAA's National Weather Service
Alaska Aviation Weather Unit
  NWS logo - Click to go to the NWS homepage
Left Navbar Graphic     22 AKDT = 06 GMT

   
NOAA is celebrating 200 years of science, service, and stewardship. Visit the NOAA 200th celebration Web site to learn more.
USA.gov is the U.S. Government's official Web portal to all Federal, state and local government Web resources and services.
Facebook
NWS on Facebook

Important Change Regarding the AAWU Web Presence

 

Over the last several months, the AAWU has been working to navigate its webpages to a nationally supported server. Security, as well as other needs, have necessitated the change.  In the process, we have made an effort to enhance the functionality of our website, as well as some of our products. As of June 20, 2017, aawu.arh.noaa.gov will be discontinued. The new AAWU web address is weather.gov/aawu. It is now live and will run in-parallel with the old site until it is discontinued. Please send any feedback or questions regarding the new webpages to nws.ar.aawu.webauthors@noaa.gov.  Thank you for your patience during this time of transition.
AAWU Home :: Display TAF Add Bookmark
TAF PAOM 280537Z 2806/2906 16008KT P6SM SCT015 BKN050
     FM280900 VRB04KT P6SM BKN080
     FM281200 VRB04KT P6SM MIFG SCT080
     FM282200 25010KT P6SM BKN100=
METAR PAOM 280053Z 13012KT 10SM FEW010 SCT055 SCT200 04/03 A2990=

METAR PAOM 280153Z 14011KT 10SM FEW050 04/03 A2991=

PAOM 280253Z COR 14009KT 10SM FEW050 04/03 A2990=

METAR PAOM 280353Z 16008KT 10SM SCT020 BKN050 04/03 A2991=

METAR PAOM 280453Z 16007KT 10SM SCT014 BKN050 04/03 A2991=

METAR PAOM 280553Z 16006KT 10SM SCT024 BKN050 04/02 A2992=

PAOM 280600Z 17006KT 10SM OVC024 04/02 A2992=

SPECI PAOM 280600Z 17006KT 10SM OVC024 04/02 A2992 RMK AO2 T00390022=


NOAA's National Weather Service
Alaska Aviation Weather Unit
6930 Sand Lake Road
Anchorage, AK 99502-1845
Disclaimer
Credits
Glossary
Privacy Policy
About Us
Career Opportunities
Contact AAWU Internet Services Site last modified: April, 17th 2012